When you browse on this site, cookies collect data to enhance your experience and personalize the content and advertising you see.
Visit our Privacy Policy to learn more. By continuing to use the site, you agree to this use of cookies and data.
  • en Belgique
  • Liste des pays
  • À 7 jours
  • Température de l'eau
  • Carte satellitaire
  • Carte météo
  • Widgets météo
  • user-avatar
    Se connecter

    Météo par heure à Elbasan

    Ce jour, 18 Juillet, Jeudi

    Heure Température Précipitation Vent Pression Humidité
    00:00 +20°C° 0 mm 1 m/s 732 mmHg 64%
    01:00 +20°C° 0 mm 1 m/s 732 mmHg 63%
    02:00 +18°C° 0 mm 2 m/s 732 mmHg 63%
    03:00 +18°C° 0 mm 2 m/s 732 mmHg 63%
    04:00 +18°C° 0 mm 2 m/s 732 mmHg 62%
    05:00 +21°C° 0 mm 1 m/s 732 mmHg 60%
    06:00 +22°C° 0 mm 1 m/s 732 mmHg 57%
    07:00 +24°C° 0 mm 1 m/s 732 mmHg 54%
    08:00 +26°C° 0 mm 1 m/s 733 mmHg 49%
    09:00 +27°C° 0 mm 1 m/s 733 mmHg 43%
    10:00 +29°C° 0 mm 1 m/s 733 mmHg 38%
    11:00 +30°C° 0 mm 1 m/s 733 mmHg 37%
    12:00 +30°C° 0 mm 2 m/s 733 mmHg 35%
    13:00 +31°C° 0 mm 2 m/s 733 mmHg 34%
    14:00 +30°C° 0 mm 3 m/s 733 mmHg 39%
    15:00 +29°C° 0 mm 3 m/s 733 mmHg 44%
    16:00 +28°C° 0 mm 3 m/s 733 mmHg 49%
    17:00 +27°C° 0.1 mm 2 m/s 733 mmHg 57%
    18:00 +25°C° 0.1 mm 1 m/s 733 mmHg 65%
    19:00 +21°C° 0.1 mm 0 m/s 733 mmHg 73%
    20:00 +20°C° 0 mm 0 m/s 733 mmHg 74%
    21:00 +22°C° 0 mm 1 m/s 734 mmHg 76%
    22:00 +21°C° 0 mm 1 m/s 734 mmHg 77%
    23:00 +21°C° 0 mm 1 m/s 734 mmHg 77%

    Demain, 19 Juillet, Vendredi

    Heure Température Précipitation Vent Pression Humidité
    00:00 +21°C° 0 mm 1 m/s 734 mmHg 77%
    01:00 +20°C° 0 mm 1 m/s 734 mmHg 77%
    02:00 +20°C° 0 mm 1 m/s 734 mmHg 76%
    03:00 +20°C° 0 mm 1 m/s 734 mmHg 76%
    04:00 +20°C° 0 mm 1 m/s 734 mmHg 75%
    05:00 +22°C° 0 mm 1 m/s 735 mmHg 70%
    06:00 +23°C° 0 mm 1 m/s 735 mmHg 65%
    07:00 +23°C° 0 mm 0 m/s 735 mmHg 60%
    08:00 +27°C° 0 mm 1 m/s 735 mmHg 54%
    09:00 +28°C° 0 mm 1 m/s 736 mmHg 48%
    10:00 +30°C° 0 mm 1 m/s 736 mmHg 42%
    11:00 +30°C° 0 mm 2 m/s 736 mmHg 41%
    12:00 +31°C° 0 mm 2 m/s 736 mmHg 40%
    13:00 +31°C° 0 mm 3 m/s 736 mmHg 40%
    14:00 +30°C° 0.4 mm 3 m/s 735 mmHg 43%
    15:00 +30°C° 0.4 mm 3 m/s 735 mmHg 47%
    16:00 +29°C° 0.4 mm 3 m/s 735 mmHg 51%
    17:00 +27°C° 0.3 mm 2 m/s 735 mmHg 57%
    18:00 +26°C° 0.3 mm 1 m/s 735 mmHg 62%
    19:00 +24°C° 0.3 mm 1 m/s 736 mmHg 68%
    20:00 +23°C° 0 mm 1 m/s 736 mmHg 69%
    21:00 +23°C° 0 mm 1 m/s 736 mmHg 70%
    22:00 +22°C° 0 mm 1 m/s 736 mmHg 72%
    23:00 +22°C° 0 mm 1 m/s 736 mmHg 72%

    Après-demain, 20 Juillet, Samedi

    Heure Température Précipitation Vent Pression Humidité
    00:00 +21°C° 0 mm 1 m/s 736 mmHg 72%
    01:00 +21°C° 0 mm 1 m/s 736 mmHg 71%
    02:00 +21°C° 0 mm 1 m/s 736 mmHg 71%
    03:00 +21°C° 0 mm 1 m/s 736 mmHg 71%
    04:00 +21°C° 0 mm 1 m/s 736 mmHg 71%
    05:00 +22°C° 0 mm 1 m/s 736 mmHg 67%
    06:00 +24°C° 0 mm 1 m/s 736 mmHg 62%
    07:00 +24°C° 0 mm 0 m/s 737 mmHg 57%
    08:00 +28°C° 0 mm 1 m/s 737 mmHg 52%
    09:00 +29°C° 0 mm 1 m/s 737 mmHg 46%
    10:00 +31°C° 0 mm 1 m/s 737 mmHg 40%
    11:00 +32°C° 0 mm 2 m/s 737 mmHg 39%
    12:00 +32°C° 0 mm 2 m/s 737 mmHg 37%
    13:00 +34°C° 0 mm 3 m/s 737 mmHg 36%
    14:00 +33°C° 0 mm 3 m/s 737 mmHg 39%
    15:00 +31°C° 0 mm 3 m/s 737 mmHg 43%
    16:00 +31°C° 0 mm 3 m/s 737 mmHg 46%
    17:00 +29°C° 0.1 mm 2 m/s 737 mmHg 52%
    18:00 +27°C° 0.1 mm 1 m/s 737 mmHg 58%
    19:00 +25°C° 0.1 mm 1 m/s 737 mmHg 65%
    20:00 +24°C° 0 mm 1 m/s 737 mmHg 66%
    21:00 +24°C° 0 mm 1 m/s 738 mmHg 68%
    22:00 +23°C° 0 mm 1 m/s 738 mmHg 69%
    23:00 +23°C° 0 mm 1 m/s 738 mmHg 69%

    21 Juillet, Dimanche

    Heure Température Précipitation Vent Pression Humidité
    00:00 +23°C° 0 mm 1 m/s 738 mmHg 69%
    01:00 +23°C° 0 mm 1 m/s 737 mmHg 69%
    02:00 +22°C° 0 mm 1 m/s 737 mmHg 69%
    03:00 +22°C° 0 mm 1 m/s 737 mmHg 69%
    04:00 +22°C° 0 mm 1 m/s 737 mmHg 69%
    05:00 +24°C° 0 mm 1 m/s 737 mmHg 64%
    06:00 +26°C° 0 mm 1 m/s 738 mmHg 60%
    07:00 +27°C° 0 mm 1 m/s 738 mmHg 55%
    08:00 +29°C° 0 mm 1 m/s 738 mmHg 50%
    09:00 +31°C° 0 mm 1 m/s 738 mmHg 44%
    10:00 +33°C° 0 mm 1 m/s 739 mmHg 39%
    11:00 +35°C° 0 mm 2 m/s 738 mmHg 37%
    12:00 +35°C° 0 mm 2 m/s 738 mmHg 35%
    13:00 +36°C° 0 mm 2 m/s 738 mmHg 34%
    14:00 +35°C° 0 mm 2 m/s 738 mmHg 37%
    15:00 +34°C° 0 mm 3 m/s 738 mmHg 40%
    16:00 +34°C° 0 mm 3 m/s 737 mmHg 43%
    17:00 +31°C° 0 mm 2 m/s 737 mmHg 49%
    18:00 +29°C° 0 mm 1 m/s 737 mmHg 55%
    19:00 +27°C° 0 mm 1 m/s 737 mmHg 61%
    20:00 +26°C° 0 mm 1 m/s 737 mmHg 62%
    21:00 +26°C° 0 mm 1 m/s 738 mmHg 63%
    22:00 +25°C° 0 mm 1 m/s 738 mmHg 64%
    23:00 +25°C° 0 mm 1 m/s 738 mmHg 63%

    22 Juillet, Lundi

    Heure Température Précipitation Vent Pression Humidité
    00:00 +25°C° 0 mm 1 m/s 738 mmHg 62%
    01:00 +24°C° 0 mm 1 m/s 737 mmHg 61%
    02:00 +24°C° 0 mm 1 m/s 737 mmHg 60%
    03:00 +24°C° 0 mm 2 m/s 737 mmHg 59%
    04:00 +24°C° 0 mm 2 m/s 737 mmHg 59%
    05:00 +26°C° 0 mm 2 m/s 737 mmHg 55%
    06:00 +27°C° 0 mm 1 m/s 737 mmHg 52%
    07:00 +29°C° 0 mm 1 m/s 738 mmHg 49%
    08:00 +31°C° 0 mm 1 m/s 738 mmHg 43%
    09:00 +33°C° 0 mm 1 m/s 738 mmHg 37%
    10:00 +35°C° 0 mm 1 m/s 738 mmHg 31%
    11:00 +36°C° 0 mm 2 m/s 738 mmHg 30%
    12:00 +37°C° 0 mm 2 m/s 737 mmHg 29%
    13:00 +37°C° 0 mm 2 m/s 737 mmHg 28%
    14:00 +37°C° 0 mm 3 m/s 737 mmHg 30%
    15:00 +36°C° 0 mm 3 m/s 736 mmHg 32%
    16:00 +36°C° 0 mm 3 m/s 736 mmHg 34%
    17:00 +34°C° 0 mm 2 m/s 736 mmHg 41%
    18:00 +30°C° 0 mm 2 m/s 736 mmHg 48%
    19:00 +28°C° 0 mm 1 m/s 736 mmHg 55%
    20:00 +27°C° 0 mm 1 m/s 736 mmHg 56%
    21:00 +26°C° 0 mm 1 m/s 736 mmHg 58%
    22:00 +26°C° 0 mm 1 m/s 736 mmHg 59%
    23:00 +25°C° 0 mm 1 m/s 736 mmHg 59%

    23 Juillet, Mardi

    Heure Température Précipitation Vent Pression Humidité
    00:00 +25°C° 0 mm 1 m/s 736 mmHg 58%
    01:00 +25°C° 0 mm 1 m/s 735 mmHg 58%
    02:00 +25°C° 0 mm 1 m/s 735 mmHg 57%
    03:00 +25°C° 0 mm 1 m/s 735 mmHg 57%
    04:00 +25°C° 0 mm 1 m/s 734 mmHg 56%
    05:00 +26°C° 0 mm 1 m/s 735 mmHg 53%
    06:00 +28°C° 0 mm 1 m/s 735 mmHg 50%
    07:00 +29°C° 0 mm 1 m/s 735 mmHg 47%
    08:00 +31°C° 0 mm 1 m/s 735 mmHg 43%
    09:00 +33°C° 0 mm 1 m/s 735 mmHg 38%
    10:00 +35°C° 0 mm 1 m/s 735 mmHg 33%
    11:00 +37°C° 0 mm 2 m/s 735 mmHg 32%
    12:00 +37°C° 0 mm 2 m/s 735 mmHg 30%
    13:00 +38°C° 0 mm 3 m/s 734 mmHg 29%
    14:00 +37°C° 0 mm 3 m/s 734 mmHg 33%
    15:00 +36°C° 0 mm 3 m/s 734 mmHg 37%
    16:00 +35°C° 0 mm 3 m/s 733 mmHg 41%
    17:00 +32°C° 0 mm 2 m/s 733 mmHg 47%
    18:00 +30°C° 0 mm 2 m/s 733 mmHg 54%
    19:00 +28°C° 0 mm 1 m/s 734 mmHg 61%
    20:00 +27°C° 0.1 mm 1 m/s 734 mmHg 64%
    21:00 +26°C° 0.1 mm 1 m/s 734 mmHg 67%
    22:00 +25°C° 0.1 mm 1 m/s 734 mmHg 70%
    23:00 +25°C° 0 mm 1 m/s 734 mmHg 72%
    Voir plus